ITY317 LFPG-LIRF

Flight info

Callsign ITY317
Flight time 1h 43m
Altitude 37000
Route PILUL DCT LUSAR DCT LURAG DCT DORAV DCT XIBIL
Aircraft A320/M-SDE3FGHIRWY/LB1

Departure

Time 2026-05-06 17:57
Airport Charles de Gaulle International Airport (LFPG)

Arrival

Time 2026-05-06 19:40
Airport Rome–Fiumicino Leonardo da Vinci International Airport (LIRF)
Time Latitude Longitude Altitude Speed Heading
2026-05-06 17:37 49.00169 2.58114 359 ft 0 kts 356°
2026-05-06 17:46 49.00168 2.58114 354 ft 0 kts 356°
2026-05-06 17:47 49.00167 2.58114 355 ft 2 kts 356°
2026-05-06 17:47 49.00153 2.58115 363 ft 2 kts 356°
2026-05-06 17:48 49.00140 2.58117 358 ft 2 kts 356°
2026-05-06 17:48 49.00126 2.58118 362 ft 2 kts 358°
2026-05-06 17:48 49.00113 2.58118 361 ft 2 kts
2026-05-06 17:48 49.00101 2.58118 362 ft 1 kts 10°
2026-05-06 17:49 49.00094 2.58116 361 ft 1 kts 26°
2026-05-06 17:49 49.00089 2.58113 361 ft 1 kts 46°
2026-05-06 17:49 49.00084 2.58107 360 ft 1 kts 68°
2026-05-06 17:49 49.00082 2.58099 359 ft 1 kts 77°
2026-05-06 17:50 49.00081 2.58091 361 ft 1 kts 82°
2026-05-06 17:50 49.00080 2.58083 361 ft 1 kts 84°
2026-05-06 17:50 49.00080 2.58075 362 ft 1 kts 85°
2026-05-06 17:51 49.00080 2.58083 361 ft 6 kts 85°
2026-05-06 17:51 49.00089 2.58247 363 ft 13 kts 86°
2026-05-06 17:51 49.00049 2.58317 355 ft 9 kts 168°
2026-05-06 17:52 48.99997 2.58303 359 ft 7 kts 196°
2026-05-06 17:52 48.99939 2.58319 359 ft 18 kts 131°
2026-05-06 17:52 48.99935 2.58557 354 ft 26 kts 85°
2026-05-06 17:52 48.99951 2.58828 358 ft 28 kts 85°
2026-05-06 17:53 48.99963 2.59116 354 ft 29 kts 89°
2026-05-06 17:53 48.99980 2.59438 354 ft 31 kts 86°
2026-05-06 17:53 48.99997 2.59737 354 ft 25 kts 85°
2026-05-06 17:53 49.00008 2.59948 354 ft 9 kts 85°
2026-05-06 17:54 49.00015 2.60085 356 ft 17 kts 86°
2026-05-06 17:54 48.99986 2.60235 356 ft 16 kts 161°
2026-05-06 17:54 48.99880 2.60201 360 ft 7 kts 220°
2026-05-06 17:54 48.99829 2.60116 353 ft 12 kts 252°
2026-05-06 17:55 48.99825 2.60071 354 ft 5 kts 263°
2026-05-06 17:55 48.99818 2.59976 355 ft 12 kts 270°
2026-05-06 17:55 48.99817 2.59939 355 ft 0 kts 266°
2026-05-06 17:56 48.99806 2.59719 353 ft 59 kts 265°
2026-05-06 17:56 48.99754 2.58733 352 ft 125 kts 266°
2026-05-06 17:56 48.99676 2.57173 433 ft 166 kts 265°
2026-05-06 17:57 48.99577 2.55475 1270 ft 157 kts 268°
2026-05-06 17:57 48.99467 2.53768 1917 ft 170 kts 268°
2026-05-06 17:57 48.99364 2.51854 2375 ft 193 kts 269°
2026-05-06 17:57 48.99255 2.49680 2823 ft 219 kts 269°
2026-05-06 17:58 48.99132 2.47241 3332 ft 243 kts 268°
2026-05-06 17:58 48.98994 2.44586 4007 ft 257 kts 267°
2026-05-06 17:58 48.98846 2.41837 4927 ft 263 kts 266°
2026-05-06 17:58 48.98692 2.39040 5849 ft 268 kts 267°
2026-05-06 17:59 48.98532 2.36200 6784 ft 271 kts 266°
2026-05-06 17:59 48.98367 2.33324 7689 ft 274 kts 267°
2026-05-06 17:59 48.98201 2.30407 8594 ft 278 kts 267°
2026-05-06 17:59 48.98036 2.27461 9512 ft 282 kts 266°
2026-05-06 18:00 48.97869 2.24464 10254 ft 290 kts 268°
2026-05-06 18:00 48.97526 2.21310 10552 ft 315 kts 252°
2026-05-06 18:00 48.96464 2.18317 11136 ft 329 kts 233°
2026-05-06 18:00 48.95381 2.16674 11605 ft 335 kts 218°
2026-05-06 18:01 48.93309 2.14996 12354 ft 344 kts 197°
2026-05-06 18:01 48.90940 2.14550 13180 ft 347 kts 176°
2026-05-06 18:01 48.88568 2.15352 13911 ft 352 kts 162°
2026-05-06 18:01 48.86239 2.16486 14693 ft 353 kts 162°
2026-05-06 18:02 48.83953 2.17889 15386 ft 357 kts 152°
2026-05-06 18:02 48.81892 2.20000 16109 ft 359 kts 140°
2026-05-06 18:02 48.80144 2.22726 16802 ft 363 kts 128°
2026-05-06 18:02 48.78701 2.25907 17424 ft 369 kts 124°
2026-05-06 18:03 48.77281 2.29163 18092 ft 372 kts 124°
2026-05-06 18:03 48.75843 2.32461 18642 ft 377 kts 124°
2026-05-06 18:03 48.74389 2.35770 19279 ft 378 kts 126°
2026-05-06 18:03 48.72675 2.38810 19865 ft 381 kts 137°
2026-05-06 18:04 48.70606 2.41315 20516 ft 381 kts 147°
2026-05-06 18:04 48.68368 2.43477 21139 ft 383 kts 148°
2026-05-06 18:04 48.66111 2.45656 21740 ft 386 kts 148°
2026-05-06 18:04 48.63842 2.47849 22322 ft 389 kts 148°
2026-05-06 18:05 48.61552 2.50059 22891 ft 391 kts 148°
2026-05-06 18:05 48.59275 2.52254 23483 ft 394 kts 148°
2026-05-06 18:05 48.56957 2.54486 23969 ft 397 kts 148°
2026-05-06 18:05 48.54621 2.56736 24445 ft 399 kts 148°
2026-05-06 18:06 48.52273 2.58995 24920 ft 401 kts 148°
2026-05-06 18:06 48.49913 2.61262 25425 ft 402 kts 148°
2026-05-06 18:06 48.47553 2.63528 25912 ft 403 kts 148°
2026-05-06 18:06 48.45176 2.65806 26375 ft 405 kts 148°
2026-05-06 18:07 48.42789 2.68084 26825 ft 407 kts 148°
2026-05-06 18:07 48.40395 2.70365 27258 ft 409 kts 148°
2026-05-06 18:07 48.37984 2.72661 27665 ft 411 kts 148°
2026-05-06 18:07 48.35562 2.74965 28072 ft 413 kts 148°
2026-05-06 18:08 48.33119 2.77289 28493 ft 415 kts 148°
2026-05-06 18:08 48.30676 2.79609 28894 ft 417 kts 148°
2026-05-06 18:08 48.28222 2.81942 29285 ft 419 kts 147°
2026-05-06 18:08 48.25857 2.84546 29666 ft 421 kts 142°
2026-05-06 18:09 48.23539 2.87247 30030 ft 423 kts 142°
2026-05-06 18:09 48.21210 2.89953 30328 ft 425 kts 142°
2026-05-06 18:09 48.18866 2.92667 30592 ft 428 kts 142°
2026-05-06 18:09 48.16501 2.95400 30814 ft 431 kts 143°
2026-05-06 18:10 48.14113 2.98155 31050 ft 435 kts 143°
2026-05-06 18:10 48.11718 3.00916 31363 ft 435 kts 142°
2026-05-06 18:10 48.09317 3.03687 31651 ft 436 kts 141°
2026-05-06 18:10 48.07075 3.06760 31849 ft 440 kts 134°
2026-05-06 18:11 48.04976 3.10045 31980 ft 444 kts 134°
2026-05-06 18:11 48.02839 3.13395 32164 ft 447 kts 134°
2026-05-06 18:11 48.00693 3.16758 32409 ft 448 kts 134°
2026-05-06 18:11 47.98541 3.20122 32661 ft 448 kts 134°
2026-05-06 18:12 47.96382 3.23492 32921 ft 449 kts 134°
2026-05-06 18:12 47.94221 3.26861 33122 ft 451 kts 134°
2026-05-06 18:12 47.92042 3.30254 33353 ft 453 kts 134°
2026-05-06 18:12 47.89858 3.33649 33599 ft 454 kts 134°
2026-05-06 18:13 47.87665 3.37056 33853 ft 455 kts 134°
2026-05-06 18:13 47.85472 3.40458 34082 ft 455 kts 135°
2026-05-06 18:13 47.83281 3.43853 34303 ft 456 kts 135°
2026-05-06 18:13 47.81075 3.47263 34537 ft 456 kts 135°
2026-05-06 18:14 47.78875 3.50657 34764 ft 456 kts 135°
2026-05-06 18:14 47.76674 3.54050 34988 ft 456 kts 135°
2026-05-06 18:14 47.74474 3.57438 35205 ft 456 kts 135°
2026-05-06 18:14 47.72269 3.60831 35401 ft 456 kts 135°
2026-05-06 18:15 47.70060 3.64226 35603 ft 457 kts 135°
2026-05-06 18:15 47.67879 3.67570 35796 ft 457 kts 135°
2026-05-06 18:15 47.65666 3.70958 35986 ft 457 kts 135°
2026-05-06 18:15 47.63447 3.74348 36149 ft 458 kts 135°
2026-05-06 18:16 47.61229 3.77735 36326 ft 458 kts 135°
2026-05-06 18:16 47.59008 3.81123 36507 ft 458 kts 135°
2026-05-06 18:16 47.56786 3.84511 36687 ft 458 kts 135°
2026-05-06 18:16 47.54567 3.87893 36872 ft 458 kts 135°
2026-05-06 18:17 47.50104 3.94672 36940 ft 460 kts 136°
2026-05-06 18:17 47.45616 4.01461 36939 ft 461 kts 136°
2026-05-06 18:18 47.41163 4.08194 36939 ft 461 kts 136°
2026-05-06 18:18 47.36681 4.14951 36935 ft 461 kts 136°
2026-05-06 18:19 47.32195 4.21690 36945 ft 460 kts 136°
2026-05-06 18:19 47.27701 4.28427 36941 ft 461 kts 136°
2026-05-06 18:20 47.23205 4.35149 36942 ft 461 kts 136°
2026-05-06 18:20 47.18702 4.41869 36939 ft 461 kts 136°
2026-05-06 18:21 47.14197 4.48581 36943 ft 461 kts 136°
2026-05-06 18:21 47.09680 4.55272 36940 ft 461 kts 137°
2026-05-06 18:22 47.05157 4.61955 36934 ft 461 kts 137°
2026-05-06 18:22 47.00632 4.68649 36937 ft 462 kts 137°
2026-05-06 18:23 46.96110 4.75323 36936 ft 462 kts 137°
2026-05-06 18:23 46.91578 4.81979 36938 ft 462 kts 137°
2026-05-06 18:24 46.87035 4.88624 36942 ft 462 kts 137°
2026-05-06 18:24 46.82491 4.95265 36932 ft 461 kts 137°
2026-05-06 18:25 46.77973 5.01847 36939 ft 461 kts 137°
2026-05-06 18:25 46.73432 5.08452 36940 ft 461 kts 137°
2026-05-06 18:26 46.68885 5.15051 36940 ft 461 kts 137°
2026-05-06 18:26 46.64552 5.21984 36943 ft 463 kts 133°
2026-05-06 18:27 46.60403 5.29155 36935 ft 463 kts 133°
2026-05-06 18:27 46.56251 5.36309 36952 ft 463 kts 133°
2026-05-06 18:28 46.52093 5.43455 36950 ft 462 kts 133°
2026-05-06 18:28 46.47936 5.50587 36949 ft 462 kts 133°
2026-05-06 18:29 46.43809 5.57653 36952 ft 462 kts 133°
2026-05-06 18:29 46.39644 5.64765 36936 ft 462 kts 134°
2026-05-06 18:30 46.35476 5.71858 36940 ft 462 kts 134°
2026-05-06 18:30 46.31297 5.78934 36949 ft 462 kts 134°
2026-05-06 18:31 46.27117 5.86005 36954 ft 462 kts 134°
2026-05-06 18:31 46.22937 5.93067 36955 ft 462 kts 134°
2026-05-06 18:32 46.18752 6.00115 36934 ft 463 kts 134°
2026-05-06 18:32 46.14552 6.07159 36944 ft 463 kts 134°
2026-05-06 18:33 46.10347 6.14195 36950 ft 463 kts 134°
2026-05-06 18:33 46.06137 6.21233 36933 ft 463 kts 134°
2026-05-06 18:34 46.01957 6.28220 36936 ft 463 kts 134°
2026-05-06 18:34 45.97745 6.35238 36913 ft 463 kts 135°
2026-05-06 18:35 45.93520 6.42230 36936 ft 463 kts 135°
2026-05-06 18:35 45.89296 6.49209 36953 ft 462 kts 135°
2026-05-06 18:36 45.85075 6.56170 36955 ft 462 kts 135°
2026-05-06 18:36 45.80848 6.63111 36962 ft 462 kts 135°
2026-05-06 18:37 45.77335 6.68885 36938 ft 462 kts 136°
2026-05-06 18:37 45.72428 6.76938 36940 ft 461 kts 136°
2026-05-06 18:38 45.68203 6.83842 36957 ft 461 kts 136°
2026-05-06 18:38 45.63982 6.90729 36935 ft 460 kts 136°
2026-05-06 18:39 45.59756 6.97594 36934 ft 460 kts 136°
2026-05-06 18:40 45.53394 7.07877 36864 ft 460 kts 137°
2026-05-06 18:40 45.49123 7.14570 36881 ft 458 kts 139°
2026-05-06 18:41 45.44720 7.21154 36874 ft 458 kts 140°
2026-05-06 18:41 45.40301 7.27716 36884 ft 458 kts 140°
2026-05-06 18:42 45.35909 7.34300 36884 ft 459 kts 139°
2026-05-06 18:42 45.31531 7.40903 36878 ft 459 kts 139°
2026-05-06 18:43 45.27135 7.47498 36878 ft 460 kts 139°
2026-05-06 18:43 45.22725 7.54072 36864 ft 460 kts 139°
2026-05-06 18:44 45.18339 7.60594 36874 ft 460 kts 139°
2026-05-06 18:44 45.13932 7.67153 36870 ft 459 kts 139°
2026-05-06 18:45 45.09517 7.73710 36816 ft 459 kts 140°
2026-05-06 18:45 45.05094 7.80249 36825 ft 459 kts 140°
2026-05-06 18:46 45.00666 7.86769 36826 ft 459 kts 140°
2026-05-06 18:46 44.96984 7.92175 36829 ft 459 kts 140°
2026-05-06 18:47 44.92556 7.98676 36837 ft 459 kts 140°
2026-05-06 18:47 44.87404 8.06232 36806 ft 460 kts 141°
2026-05-06 18:48 44.83685 8.11673 36815 ft 460 kts 141°
2026-05-06 18:48 44.79238 8.18169 36821 ft 460 kts 141°
2026-05-06 18:49 44.74811 8.24608 36828 ft 460 kts 141°
2026-05-06 18:49 44.70352 8.31077 36833 ft 460 kts 141°
2026-05-06 18:50 44.65895 8.37532 36835 ft 460 kts 141°
2026-05-06 18:50 44.61434 8.43977 36865 ft 460 kts 140°
2026-05-06 18:51 44.56962 8.50428 36876 ft 460 kts 141°
2026-05-06 18:51 44.52495 8.56855 36877 ft 460 kts 141°
2026-05-06 18:52 44.48022 8.63267 36896 ft 460 kts 141°
2026-05-06 18:52 44.43554 8.69663 36896 ft 459 kts 141°
2026-05-06 18:53 44.39109 8.76007 36880 ft 458 kts 141°
2026-05-06 18:53 44.34650 8.82363 36904 ft 458 kts 141°
2026-05-06 18:54 44.30193 8.88714 36907 ft 457 kts 141°
2026-05-06 18:54 44.25775 8.95107 36902 ft 457 kts 141°
2026-05-06 18:55 44.21362 9.01504 36908 ft 458 kts 141°
2026-05-06 18:55 44.16934 9.07880 36911 ft 458 kts 141°
2026-05-06 18:56 44.12492 9.14244 36895 ft 458 kts 141°
2026-05-06 18:56 44.08056 9.20594 36925 ft 458 kts 141°
2026-05-06 18:57 44.03619 9.26940 36915 ft 457 kts 141°
2026-05-06 18:57 43.99174 9.33271 36921 ft 457 kts 141°
2026-05-06 18:58 43.94728 9.39597 36931 ft 458 kts 141°
2026-05-06 18:58 43.90273 9.45925 36929 ft 458 kts 141°
2026-05-06 18:59 43.85844 9.52198 36912 ft 458 kts 141°
2026-05-06 18:59 43.81382 9.58503 36921 ft 458 kts 141°
2026-05-06 19:00 43.76906 9.64815 36929 ft 459 kts 142°
2026-05-06 19:00 43.72425 9.71112 36948 ft 459 kts 142°
2026-05-06 19:01 43.67941 9.77406 36956 ft 459 kts 142°
2026-05-06 19:01 43.63447 9.83694 36921 ft 459 kts 142°
2026-05-06 19:02 43.58955 9.89966 36920 ft 459 kts 142°
2026-05-06 19:02 43.54463 9.96225 36939 ft 459 kts 142°
2026-05-06 19:03 43.49965 10.02484 36954 ft 459 kts 142°
2026-05-06 19:03 43.45464 10.08729 36959 ft 459 kts 142°
2026-05-06 19:04 43.40962 10.14950 36967 ft 459 kts 142°
2026-05-06 19:04 43.36488 10.21125 36928 ft 459 kts 142°
2026-05-06 19:05 43.31988 10.27335 36951 ft 458 kts 142°
2026-05-06 19:05 43.27481 10.33525 36959 ft 458 kts 142°
2026-05-06 19:06 43.22978 10.39700 36961 ft 458 kts 142°
2026-05-06 19:06 43.18475 10.45869 36975 ft 458 kts 142°
2026-05-06 19:07 43.13959 10.52037 36954 ft 457 kts 142°
2026-05-06 19:07 43.09446 10.58181 36754 ft 458 kts 142°
2026-05-06 19:07 43.07186 10.61262 36497 ft 457 kts 142°
2026-05-06 19:08 43.04933 10.64330 36237 ft 456 kts 142°
2026-05-06 19:08 43.02685 10.67389 35981 ft 456 kts 142°
2026-05-06 19:08 43.00433 10.70439 35708 ft 455 kts 142°
2026-05-06 19:08 42.98178 10.73486 34807 ft 458 kts 142°
2026-05-06 19:09 42.95907 10.76549 33951 ft 458 kts 142°
2026-05-06 19:09 42.93649 10.79604 32943 ft 458 kts 142°
2026-05-06 19:09 42.91382 10.82673 31859 ft 460 kts 142°
2026-05-06 19:09 42.89103 10.85754 30834 ft 462 kts 142°
2026-05-06 19:10 42.86813 10.88842 29651 ft 465 kts 142°
2026-05-06 19:10 42.84507 10.91938 28777 ft 462 kts 141°
2026-05-06 19:10 42.82269 10.94953 28617 ft 443 kts 142°
2026-05-06 19:10 42.80189 10.97863 28228 ft 427 kts 137°
2026-05-06 19:11 42.78441 11.01112 27912 ft 424 kts 129°
2026-05-06 19:11 42.76855 11.04471 27646 ft 420 kts 129°
2026-05-06 19:11 42.75280 11.07802 27288 ft 417 kts 130°
2026-05-06 19:11 42.73715 11.11103 26669 ft 413 kts 130°
2026-05-06 19:12 42.72168 11.14370 26082 ft 409 kts 130°
2026-05-06 19:12 42.70633 11.17607 25503 ft 408 kts 130°
2026-05-06 19:12 42.69094 11.20843 24951 ft 406 kts 130°
2026-05-06 19:12 42.67572 11.24048 24437 ft 403 kts 129°
2026-05-06 19:13 42.66054 11.27249 23787 ft 403 kts 129°
2026-05-06 19:13 42.64540 11.30435 23329 ft 399 kts 129°
2026-05-06 19:13 42.63049 11.33580 22823 ft 395 kts 129°
2026-05-06 19:13 42.61579 11.36691 22037 ft 387 kts 129°
2026-05-06 19:14 42.60131 11.39746 21431 ft 383 kts 129°
2026-05-06 19:14 42.58697 11.42750 20891 ft 378 kts 128°
2026-05-06 19:14 42.57267 11.45736 20406 ft 376 kts 128°
2026-05-06 19:14 42.55782 11.48619 19902 ft 368 kts 136°
2026-05-06 19:15 42.53972 11.50972 19302 ft 357 kts 148°
2026-05-06 19:15 42.51892 11.52722 18852 ft 349 kts 158°
2026-05-06 19:15 42.49667 11.53911 18310 ft 338 kts 164°
2026-05-06 19:15 42.47483 11.54939 17752 ft 337 kts 164°
2026-05-06 19:16 42.45272 11.55976 17252 ft 335 kts 164°
2026-05-06 19:16 42.43099 11.56993 17052 ft 325 kts 164°
2026-05-06 19:16 42.41013 11.57977 16667 ft 312 kts 164°
2026-05-06 19:16 42.38987 11.58928 16323 ft 308 kts 164°
2026-05-06 19:17 42.36968 11.59872 16063 ft 306 kts 164°
2026-05-06 19:17 42.34961 11.60808 15813 ft 305 kts 164°
2026-05-06 19:17 42.32959 11.61741 15558 ft 304 kts 164°
2026-05-06 19:17 42.30967 11.62668 15351 ft 302 kts 164°
2026-05-06 19:18 42.29018 11.63575 15205 ft 289 kts 164°
2026-05-06 19:18 42.27152 11.64446 14841 ft 279 kts 164°
2026-05-06 19:18 42.25325 11.65286 14611 ft 277 kts 165°
2026-05-06 19:18 42.23488 11.66090 14369 ft 275 kts 165°
2026-05-06 19:19 42.21667 11.66869 14129 ft 274 kts 165°
2026-05-06 19:19 42.19849 11.67644 13896 ft 273 kts 165°
2026-05-06 19:19 42.18066 11.68405 13642 ft 272 kts 165°
2026-05-06 19:19 42.16268 11.69172 13373 ft 271 kts 165°
2026-05-06 19:20 42.14455 11.69949 13105 ft 270 kts 165°
2026-05-06 19:20 42.12670 11.70716 12843 ft 268 kts 165°
2026-05-06 19:20 42.10895 11.71478 12584 ft 268 kts 165°
2026-05-06 19:20 42.09121 11.72240 12323 ft 267 kts 165°
2026-05-06 19:21 42.07389 11.73057 12070 ft 268 kts 155°
2026-05-06 19:21 42.06034 11.74734 11812 ft 267 kts 121°
2026-05-06 19:21 42.05590 11.77145 11566 ft 271 kts 87°
2026-05-06 19:21 42.06063 11.79611 11316 ft 274 kts 73°
2026-05-06 19:22 42.06661 11.82041 11068 ft 274 kts 73°
2026-05-06 19:22 42.07258 11.84475 10821 ft 274 kts 69°
2026-05-06 19:22 42.08329 11.86552 10572 ft 271 kts 38°
2026-05-06 19:22 42.09994 11.87665 10325 ft 268 kts
2026-05-06 19:23 42.11819 11.87571 10100 ft 261 kts 340°
2026-05-06 19:23 42.13552 11.86827 9893 ft 260 kts 339°
2026-05-06 19:23 42.15277 11.86078 9766 ft 261 kts 339°
2026-05-06 19:23 42.17008 11.85334 9636 ft 261 kts 340°
2026-05-06 19:24 42.18739 11.84596 9507 ft 261 kts 339°
2026-05-06 19:24 42.20474 11.83857 9378 ft 261 kts 339°
2026-05-06 19:24 42.22206 11.83116 9246 ft 261 kts 339°
2026-05-06 19:24 42.23932 11.82377 9113 ft 260 kts 339°
2026-05-06 19:25 42.25664 11.81637 8986 ft 260 kts 339°
2026-05-06 19:25 42.27383 11.80901 8993 ft 259 kts 339°
2026-05-06 19:25 42.29125 11.80228 8995 ft 262 kts 349°
2026-05-06 19:25 42.30938 11.80449 8996 ft 266 kts 19°
2026-05-06 19:26 42.32470 11.81812 8995 ft 266 kts 50°
2026-05-06 19:26 42.33350 11.83976 9001 ft 265 kts 74°
2026-05-06 19:26 42.33913 11.86360 8999 ft 266 kts 74°
2026-05-06 19:26 42.34471 11.88746 9000 ft 266 kts 74°
2026-05-06 19:27 42.34810 11.91172 8995 ft 261 kts 97°
2026-05-06 19:27 42.34286 11.93383 9000 ft 238 kts 128°
2026-05-06 19:27 42.33139 11.94846 8998 ft 225 kts 155°
2026-05-06 19:27 42.31738 11.95552 9008 ft 208 kts 166°
2026-05-06 19:28 42.30371 11.96134 9001 ft 205 kts 166°
2026-05-06 19:28 42.29014 11.96711 9000 ft 204 kts 166°
2026-05-06 19:28 42.27662 11.97282 8999 ft 203 kts 167°
2026-05-06 19:28 42.26298 11.97856 8714 ft 209 kts 166°
2026-05-06 19:29 42.24866 11.98455 8135 ft 221 kts 166°
2026-05-06 19:29 42.23375 11.99085 7530 ft 226 kts 166°
2026-05-06 19:29 42.21866 11.99726 6951 ft 229 kts 165°
2026-05-06 19:29 42.20340 12.00377 6360 ft 231 kts 165°
2026-05-06 19:30 42.18802 12.01032 5774 ft 231 kts 165°
2026-05-06 19:30 42.17296 12.01675 5365 ft 223 kts 165°
2026-05-06 19:30 42.15850 12.02298 4996 ft 213 kts 165°
2026-05-06 19:30 42.14927 12.02698 4765 ft 208 kts 165°
2026-05-06 19:31 42.13570 12.03283 4412 ft 202 kts 165°
2026-05-06 19:31 42.12268 12.03911 4094 ft 196 kts 152°
2026-05-06 19:31 42.10474 12.06533 3728 ft 185 kts 137°
2026-05-06 19:32 42.09335 12.08201 3527 ft 181 kts 137°
2026-05-06 19:32 42.08761 12.09042 3428 ft 180 kts 137°
2026-05-06 19:32 42.07938 12.10248 3311 ft 169 kts 137°
2026-05-06 19:32 42.07162 12.11385 3146 ft 161 kts 137°
2026-05-06 19:33 42.06427 12.12463 3003 ft 152 kts 137°
2026-05-06 19:33 42.05739 12.13472 2932 ft 140 kts 137°
2026-05-06 19:33 42.05098 12.14411 2902 ft 133 kts 137°
2026-05-06 19:33 42.04484 12.15309 2870 ft 131 kts 137°
2026-05-06 19:34 42.03868 12.16210 2843 ft 131 kts 137°
2026-05-06 19:34 42.03254 12.17107 2806 ft 130 kts 137°
2026-05-06 19:34 42.02596 12.17935 2777 ft 129 kts 147°
2026-05-06 19:34 42.01835 12.18563 2770 ft 129 kts 154°
2026-05-06 19:35 42.01020 12.19070 2710 ft 129 kts 159°
2026-05-06 19:35 42.00181 12.19509 2649 ft 129 kts 161°
2026-05-06 19:35 41.99333 12.19910 2592 ft 129 kts 163°
2026-05-06 19:35 41.98479 12.20293 2527 ft 129 kts 164°
2026-05-06 19:36 41.97627 12.20663 2517 ft 129 kts 164°
2026-05-06 19:36 41.96780 12.21026 2448 ft 129 kts 165°
2026-05-06 19:36 41.95923 12.21390 2323 ft 129 kts 165°
2026-05-06 19:36 41.95061 12.21754 2169 ft 129 kts 163°
2026-05-06 19:37 41.94208 12.22114 2011 ft 128 kts 162°
2026-05-06 19:37 41.93361 12.22470 1848 ft 127 kts 163°
2026-05-06 19:37 41.92520 12.22824 1681 ft 127 kts 162°
2026-05-06 19:37 41.91676 12.23178 1508 ft 127 kts 162°
2026-05-06 19:38 41.90837 12.23530 1340 ft 126 kts 163°
2026-05-06 19:38 41.89994 12.23885 1163 ft 127 kts 163°
2026-05-06 19:38 41.89154 12.24237 998 ft 126 kts 163°
2026-05-06 19:38 41.88302 12.24591 778 ft 128 kts 165°
2026-05-06 19:39 41.87484 12.24939 567 ft 124 kts 162°
2026-05-06 19:39 41.86661 12.25297 502 ft 125 kts 165°
2026-05-06 19:39 41.85824 12.25660 349 ft 127 kts 169°
2026-05-06 19:39 41.84971 12.25975 194 ft 126 kts 156°
2026-05-06 19:40 41.84141 12.26322 45 ft 123 kts 153°
2026-05-06 19:40 41.83352 12.26670 13 ft 103 kts 160°
2026-05-06 19:40 41.82957 12.26834 14 ft 16 kts 166°
2026-05-06 19:40 41.82940 12.26839 12 ft 2 kts 167°
2026-05-06 19:41 41.82903 12.26851 13 ft 12 kts 166°
2026-05-06 19:41 41.82787 12.26871 14 ft 21 kts 177°
2026-05-06 19:41 41.82641 12.26850 10 ft 11 kts 192°
2026-05-06 19:41 41.82554 12.26825 10 ft 14 kts 192°
2026-05-06 19:42 41.82450 12.26795 11 ft 16 kts 192°
2026-05-06 19:42 41.82331 12.26784 13 ft 18 kts 169°
2026-05-06 19:42 41.82201 12.26832 11 ft 20 kts 163°
2026-05-06 19:42 41.82077 12.26883 11 ft 17 kts 162°
2026-05-06 19:43 41.81960 12.26932 12 ft 18 kts 163°
2026-05-06 19:43 41.81833 12.26985 12 ft 20 kts 162°
2026-05-06 19:43 41.81693 12.27043 12 ft 22 kts 162°
2026-05-06 19:43 41.81551 12.27103 12 ft 18 kts 163°
2026-05-06 19:44 41.81423 12.27157 14 ft 20 kts 163°
2026-05-06 19:44 41.81282 12.27216 12 ft 21 kts 162°
2026-05-06 19:44 41.81139 12.27275 12 ft 22 kts 162°
2026-05-06 19:44 41.81009 12.27330 13 ft 13 kts 163°
2026-05-06 19:45 41.80910 12.27350 13 ft 16 kts 187°
2026-05-06 19:45 41.80795 12.27326 13 ft 18 kts 190°
2026-05-06 19:45 41.80677 12.27267 13 ft 17 kts 226°
2026-05-06 19:45 41.80627 12.27126 14 ft 17 kts 251°
2026-05-06 19:46 41.80588 12.26981 15 ft 17 kts 250°
2026-05-06 19:46 41.80547 12.26830 14 ft 18 kts 250°
2026-05-06 19:46 41.80503 12.26673 15 ft 18 kts 249°
2026-05-06 19:46 41.80461 12.26515 15 ft 17 kts 250°
2026-05-06 19:47 41.80408 12.26379 15 ft 17 kts 216°
2026-05-06 19:47 41.80295 12.26397 14 ft 17 kts 161°
2026-05-06 19:47 41.80179 12.26384 15 ft 19 kts 204°
2026-05-06 19:47 41.80061 12.26311 14 ft 19 kts 205°
2026-05-06 19:48 41.79935 12.26233 14 ft 21 kts 203°
2026-05-06 19:48 41.79825 12.26165 14 ft 18 kts 205°
2026-05-06 19:48 41.79771 12.26052 16 ft 15 kts 293°
2026-05-06 19:48 41.79815 12.25930 16 ft 14 kts 296°
2026-05-06 19:49 41.79852 12.25817 14 ft 11 kts 278°
2026-05-06 19:49 41.79797 12.25765 14 ft 11 kts 205°
2026-05-06 19:49 41.79740 12.25720 14 ft 5 kts 248°
2026-05-06 19:49 41.79754 12.25690 14 ft 3 kts 300°
2026-05-06 19:50 41.79761 12.25671 16 ft 2 kts 297°
2026-05-06 19:50 41.79764 12.25663 15 ft 0 kts 297°
2026-05-06 19:51 41.79764 12.25664 15 ft 0 kts 297°